GW4183 Weather Reports


time (UTC)temp
F
wind
direction
speed
knots
gust
knots
rain 1hr
in
rain 24hr
in
rain mn
in
humidity
%
barometer
mb
20260504174624 79 359 2.6 6.1 0.00 0.00 0.00 26 1005.7
20260504174120 79 343 1.7 3.5 0.00 0.00 0.00 26 1005.6
20260504173618 79 9 1.7 5.2 0.00 0.00 0.00 25 1005.5
20260504173115 79 7 3.5 5.2 0.00 0.00 0.00 24 1005.6
20260504172611 79 330 2.6 3.5 0.00 0.00 0.00 26 1005.7
20260504172108 80 357 1.7 6.1 0.00 0.00 0.00 25 1006.0
20260504171604 79 12 3.5 3.5 0.00 0.00 0.00 26 1005.7
20260504171102 78 357 2.6 2.6 0.00 0.00 0.00 27 1005.9
20260504170557 79 351 0.9 3.5 0.00 0.00 0.00 26 1005.9
20260504150941 74 352 0.9 1.7 0.00 0.00 0.00 38 1006.3
20260504150438 73 299 0.0 0.9 0.00 0.00 0.00 39 1006.3
20260504140904 68 355 0.0 0.9 0.00 0.00 0.00 43 1006.7
20260504140400 68 356 0.0 0.9 0.00 0.00 0.00 42 1006.7
20260504130324 55 348 0.0 0.0 0.00 0.00 0.00 58 1006.4
20260504120248 49 355 0.0 0.9 0.00 0.00 0.00 64 1006.3
20260504110715 50 356 0.9 0.9 0.00 0.00 0.00 64 1006.0
20260504110212 51 335 0.0 0.0 0.00 0.00 0.00 64 1006.1
20260504100136 51 322 0.0 0.9 0.00 0.00 0.00 63 1005.8
20260504081529 56 314 0.0 0.9 0.00 0.00 0.00 50 1005.9
20260504081025 56 264 0.0 0.9 0.00 0.00 0.00 50 1006.2
20260504080522 57 297 0.0 0.9 0.00 0.00 0.00 50 1006.1
20260504050334 60 355 0.0 0.9 0.00 0.00 0.00 46 1009.2
20260504045832 60 1 0.9 2.6 0.00 0.00 0.00 46 1009.3
20260504045326 60 42 0.9 1.7 0.00 0.00 0.00 45 1009.1
20260504044824 60 293 0.9 1.7 0.00 0.00 0.00 46 1009.4
20260504044321 60 268 1.7 1.7 0.00 0.00 0.00 46 1009.3
20260504043818 60 14 0.0 1.7 0.00 0.00 0.00 46 1009.7
20260504043315 61 85 1.7 2.6 0.00 0.00 0.00 46 1009.4
20260504042813 60 137 1.7 2.6 0.00 0.00 0.00 46 1009.4
20260504042309 60 63 0.9 2.6 0.00 0.00 0.00 46 1009.5
20260504041805 60 2 0.9 1.7 0.00 0.00 0.00 46 1009.7
20260504041301 61 73 1.7 3.5 0.00 0.00 0.00 46 1009.7
20260504040758 61 79 1.7 1.7 0.00 0.00 0.00 46 1009.7
20260504040255 62 78 2.6 2.6 0.00 0.00 0.00 45 1009.7
20260504035751 62 33 1.7 5.2 0.00 0.00 0.00 45 1009.8
20260504035248 62 58 0.9 1.7 0.00 0.00 0.00 45 1009.5
20260504034745 62 103 1.7 3.5 0.00 0.00 0.00 44 1009.5
20260504034243 62 88 1.7 2.6 0.00 0.00 0.00 44 1009.8
20260504033740 63 114 1.7 1.7 0.00 0.00 0.00 43 1009.7
20260504033238 63 90 1.7 2.6 0.00 0.00 0.00 43 1009.7
20260504032734 63 91 1.7 2.6 0.00 0.00 0.00 43 1009.7
20260504032231 63 92 1.7 2.6 0.00 0.00 0.00 42 1009.8
20260504031728 63 4 0.9 2.6 0.00 0.00 0.00 43 1009.5
20260504031226 63 13 0.9 0.9 0.00 0.00 0.00 43 1009.9
20260504030721 63 358 0.9 3.5 0.00 0.00 0.00 44 1009.9
20260504030219 64 57 1.7 3.5 0.00 0.00 0.00 42 1009.9
20260504025715 64 58 0.9 2.6 0.00 0.00 0.00 43 1009.5
20260504025212 64 7 0.0 1.7 0.00 0.00 0.00 43 1009.7
20260504024709 64 91 1.7 1.7 0.00 0.00 0.00 43 1009.9
20260504024205 64 13 0.9 1.7 0.00 0.00 0.00 42 1009.8
20260504023702 64 14 0.9 1.7 0.00 0.00 0.00 42 1009.9
20260504023158 64 359 0.9 1.7 0.00 0.00 0.00 42 1009.9
20260504022654 63 34 0.9 1.7 0.00 0.00 0.00 43 1010.0
20260504022150 64 6 0.0 0.9 0.00 0.00 0.00 43 1010.0
20260504021649 64 6 0.0 0.0 0.00 0.00 0.00 42 1009.9
20260504021145 65 6 0.0 0.9 0.00 0.00 0.00 42 1010.1
20260504020642 65 350 0.0 0.9 0.00 0.00 0.00 41 1010.1
20260504020138 65 12 0.0 0.0 0.00 0.00 0.00 41 1010.1
20260504015635 66 12 0.0 0.9 0.00 0.00 0.00 41 1009.9
20260504015131 66 354 0.0 0.9 0.00 0.00 0.00 41 1010.1
20260504014627 66 349 0.0 0.9 0.00 0.00 0.00 40 1010.0
20260504014124 66 10 0.0 0.9 0.00 0.00 0.00 40 1010.1
20260504013622 66 354 0.0 0.0 0.00 0.00 0.00 40 1009.9
20260504013119 67 354 0.0 0.0 0.00 0.00 0.00 39 1009.9
20260504012616 68 354 0.0 0.9 0.00 0.00 0.00 38 1010.0
20260504012114 68 354 0.0 0.0 0.00 0.00 0.00 39 1010.0
20260504011610 68 354 0.0 0.9 0.00 0.00 0.00 38 1009.8
20260504011107 69 352 0.0 0.9 0.00 0.00 0.00 37 1010.0
20260504010603 69 354 0.9 1.7 0.00 0.00 0.00 37 1009.9
20260504010059 69 4 0.0 0.9 0.00 0.00 0.00 37 1010.0
20260504005555 69 19 0.9 0.9 0.00 0.00 0.00 36 1010.1
20260504005053 70 351 0.0 0.9 0.00 0.00 0.00 37 1010.1
20260504004551 70 337 0.0 1.7 0.00 0.00 0.00 37 1010.2
20260504004048 71 8 0.9 0.9 0.00 0.00 0.00 35 1010.2
20260504003543 71 23 0.0 1.7 0.00 0.00 0.00 35 1010.3
20260504003040 71 67 1.7 1.7 0.00 0.00 0.00 35 1010.3
20260504002537 71 354 0.0 0.9 0.00 0.00 0.00 35 1010.4
20260504002035 71 350 0.0 0.9 0.00 0.00 0.00 35 1010.6
20260504001533 72 356 0.0 0.9 0.00 0.00 0.00 33 1010.7
20260504001028 72 346 0.0 0.9 0.00 0.00 0.00 34 1010.7
20260504000526 72 346 0.0 0.9 0.00 0.00 0.00 35 1010.6
20260504000023 72 4 0.9 1.7 0.00 0.00 0.00 35 1010.7
20260503235521 73 349 0.0 1.7 0.00 0.00 0.00 33 1010.8
20260503235018 73 15 0.9 1.7 0.00 0.00 0.00 32 1010.9
20260503234515 73 342 0.9 1.7 0.00 0.00 0.00 32 1010.9
20260503234014 73 329 0.0 1.7 0.00 0.00 0.00 31 1010.9
20260503233510 73 353 0.9 1.7 0.00 0.00 0.00 32 1011.2
20260503233006 73 359 0.9 1.7 0.00 0.00 0.00 31 1011.3
20260503232503 73 350 0.9 1.7 0.00 0.00 0.00 32 1011.2
20260503232000 73 353 0.9 0.9 0.00 0.00 0.00 32 1011.2
20260503231458 73 3 0.9 2.6 0.00 0.00 0.00 31 1011.0
20260503230954 73 349 0.0 2.6 0.00 0.00 0.00 33 1011.3
20260503230451 73 349 1.7 1.7 0.00 0.00 0.00 31 1011.2
20260503225949 74 339 0.9 1.7 0.00 0.00 0.00 33 1011.2
20260503225445 74 358 0.9 0.9 0.00 0.00 0.00 32 1011.4
20260503224941 74 118 0.9 1.7 0.00 0.00 0.00 30 1011.3
20260503224438 74 17 1.7 2.6 0.00 0.00 0.00 30 1011.5
20260503223936 74 11 0.9 1.7 0.00 0.00 0.00 32 1011.7
20260503223433 75 352 0.0 0.9 0.00 0.00 0.00 31 1011.5
20260503222928 76 336 0.9 0.9 0.00 0.00 0.00 31 1011.5
20260503222427 76 328 0.0 2.6 0.00 0.00 0.00 31 1011.6
20260503221925 76 356 0.9 1.7 0.00 0.00 0.00 32 1011.4
20260503221423 75 253 1.7 2.6 0.00 0.00 0.00 29 1011.6
20260503220920 77 346 0.9 1.7 0.00 0.00 0.00 32 1011.6
20260503220416 78 346 0.0 0.9 0.00 0.00 0.00 28 1011.6
20260503215914 77 323 0.9 1.7 0.00 0.00 0.00 31 1011.6
20260503215410 75 338 0.0 1.7 0.00 0.00 0.00 31 1011.9
20260503214908 75 343 1.7 2.6 0.00 0.00 0.00 30 1012.0
20260503214405 75 349 0.0 1.7 0.00 0.00 0.00 30 1011.9
20260503213902 75 6 0.9 1.7 0.00 0.00 0.00 30 1012.1
20260503213400 76 6 0.9 1.7 0.00 0.00 0.00 30 1012.2
20260503212856 76 347 0.9 2.6 0.00 0.00 0.00 29 1012.1
20260503212355 76 290 0.9 2.6 0.00 0.00 0.00 33 1012.1
20260503211851 76 346 0.9 1.7 0.00 0.00 0.00 31 1012.1
20260503211348 76 137 3.5 5.2 0.00 0.00 0.00 31 1012.3
20260503210843 76 307 0.9 1.7 0.00 0.00 0.00 31 1012.4
20260503210341 76 24 1.7 2.6 0.00 0.00 0.00 31 1012.3
20260503205836 76 336 1.7 1.7 0.00 0.00 0.00 32 1012.4
20260503205332 76 76 1.7 2.6 0.00 0.00 0.00 31 1012.7
20260503204829 76 350 0.9 2.6 0.00 0.00 0.00 29 1012.9
20260503204327 76 292 0.0 1.7 0.00 0.00 0.00 32 1012.7
20260503203824 76 356 2.6 6.1 0.00 0.00 0.00 31 1012.7
20260503203321 75 348 0.9 5.2 0.00 0.00 0.00 31 1012.7
20260503202818 75 30 3.5 3.5 0.00 0.00 0.00 30 1012.8
20260503202316 77 23 1.7 1.7 0.00 0.00 0.00 30 1012.7
20260503201814 77 342 1.7 1.7 0.00 0.00 0.00 30 1012.8
20260503201310 75 334 0.9 1.7 0.00 0.00 0.00 33 1012.9
20260503200808 76 316 0.0 7.0 0.00 0.00 0.00 35 1013.0
20260503200303 75 312 0.0 0.9 0.00 0.00 0.00 33 1013.0
20260503195801 75 3 0.9 1.7 0.00 0.00 0.00 31 1013.2
20260503195258 76 303 0.9 1.7 0.00 0.00 0.00 33 1013.3
20260503194755 76 31 0.9 2.6 0.00 0.00 0.00 33 1013.2
20260503194251 75 70 0.9 2.6 0.00 0.00 0.00 32 1013.3
20260503193747 75 135 2.6 7.0 0.00 0.00 0.00 32 1013.5
20260503193243 76 58 1.7 2.6 0.00 0.00 0.00 31 1013.4
20260503192739 76 8 1.7 3.5 0.00 0.00 0.00 31 1013.5
20260503192234 75 341 0.9 3.5 0.00 0.00 0.00 32 1013.5
20260503191731 75 314 1.7 2.6 0.00 0.00 0.00 31 1013.6
20260503191228 75 22 0.9 5.2 0.00 0.00 0.00 31 1013.7
20260503190725 74 350 0.9 2.6 0.00 0.00 0.00 32 1013.8
20260503190221 75 14 2.6 3.5 0.00 0.00 0.00 32 1013.7
20260503185719 75 341 0.0 5.2 0.00 0.00 0.00 35 1013.7
20260503185214 73 325 0.0 0.9 0.00 0.00 0.00 35 1013.7
20260503184709 73 1 1.7 3.5 0.00 0.00 0.00 31 1014.1
20260503184206 72 354 0.0 1.7 0.00 0.00 0.00 31 1013.8
20260503183702 73 10 0.9 5.2 0.00 0.00 0.00 33 1014.1
20260503183159 73 26 0.9 6.1 0.00 0.00 0.00 32 1014.1
20260503182657 75 25 2.6 6.1 0.00 0.00 0.00 32 1014.0
20260503182155 73 353 0.9 2.6 0.00 0.00 0.00 33 1014.0
20260503181652 73 17 1.7 6.1 0.00 0.00 0.00 32 1014.3
20260503181149 74 26 1.7 1.7 0.00 0.00 0.00 31 1014.4
20260503180646 74 5 1.7 3.5 0.00 0.00 0.00 32 1014.5
20260503180144 73 21 1.7 1.7 0.00 0.00 0.00 33 1014.6
20260503175641 73 28 2.6 2.6 0.00 0.00 0.00 32 1014.7
20260503175138 74 33 1.7 2.6 0.00 0.00 0.00 32 1014.5